STARLINK-32854 (62816 NORAD) Tracking and Keplerian Element Data

This shows tracking and keplerian element data for the satellite.

Feedback or suggestion? Click here.




ElementValue
Catalog62816
NameSTARLINK-32854
Epoch Orbit281
Epoch Day35.25001157
Epoch Year2025
RAAN11.4935
Inclination53.1472
Eccentricity0.0001217
Argument of Perigee85.7277
Mean Anonmoly94.6224
Mean Motion15.85870954
Decay Rate-0.01015785
L11 62816U 25018L 25035.25001157 -.01015785 00000+0 -45539-2 0 9991
L22 62816 53.1472 11.4935 0001217 85.7277 94.6224 15.85870954 2817



Live tracking and technical data element details for STARLINK-32854 (NORAD 62816). STARLINK-32854 can be tracked NOW for your location showing map with azimuth and elevation plus other details from your city location.







IsCatalogInMostPopularTable: catalog: 62816, numindb: 2
Update: records affected: 1



GetName: 62816 STARLINK-32854

Hit Count: updated at: Sun, 09 Feb 2025 14:02:05 GMT